Regional Weather Roundup
Issued by NWS

Home | Current Version | Previous Version | Text Only | Print | Product List | Glossary On
Versions: 1 2 3 4 5 6 7 8 9 10 11 12 13 14 15 16 17 18 19 20 21 22 23 24 25 26 27 28 29 30 31 32 33 34 35 36 37 38 39 40 41 42 43 44 45 46 47 48 49 50
000
ASUS43 KBIS 161120
RWRND

NORTH DAKOTA REGIONAL WEATHER ROUNDUP
NATIONAL WEATHER SERVICE BISMARCK ND
600 AM CDT TUE SEP 16 2014

NOTE: "FAIR" INDICATES FEW OR NO CLOUDS BELOW 12,000 FEET WITH NO
SIGNIFICANT WEATHER AND/OR OBSTRUCTIONS TO VISIBILITY.


NDZ001>003-009>011-017-161200-
NORTHWEST NORTH DAKOTA

CITY           SKY/WX    TMP DP  RH WIND       PRES   REMARKS
WILLISTON      CLEAR     35  32  88 CALM      30.03S
MINOT          CLEAR     48  39  71 SW9       30.01F
MINOT AFB      CLEAR     44  40  86 SW5       30.00F
$$

NDZ018>021-031>035-040>046-161200-
SOUTHWEST NORTH DAKOTA

CITY           SKY/WX    TMP DP  RH WIND       PRES   REMARKS
BISMARCK       CLEAR     42  39  89 NE5       30.06F
DICKINSON      CLEAR     39  36  89 SW3       30.02F
GARRISON         N/A     46  40  79 S5        30.04F
HETTINGER ARPT CLEAR     37  34  89 CALM      30.05S
$$

NDZ004>008-012>016-024-026-027-054-161200-
NORTHEAST NORTH DAKOTA

CITY           SKY/WX    TMP DP  RH WIND       PRES   REMARKS
GRAND FORKS    CLEAR     49  38  65 SW9       30.03F
GRND FRKS AFB  CLEAR     46  40  79 W6        30.04F
DEVILS LAKE    CLEAR     50  39  66 SW9       30.03S
$$

NDZ022-023-025-028>030-036>039-047>053-161200-
SOUTHEAST NORTH DAKOTA

CITY           SKY/WX    TMP DP  RH WIND       PRES   REMARKS
FARGO          CLEAR     46  37  71 SW10      30.10S
JAMESTOWN      CLEAR     38  34  85 S3        30.07F
$$




USA.gov is the U.S. government's official web portal to all federal, state and local government web resources and services.